2018-083D (43665 NORAD) Tracking and Keplerian Element Data

This shows tracking and keplerian element data for the satellite.

Feedback or suggestion? Click here.




ElementValue
Catalog43665
Name2018-083D
Epoch Orbit461
Epoch Day332.43936269
Epoch Year2018
RAAN353.0774
Inclination97.5188
Eccentricity0.0014044
Argument of Perigee160.7415
Mean Anonmoly305.1029
Mean Motion15.16818947
Decay Rate4.93E-06
L11 43665U 18083D 18332.43936269 .00000493 00000-0 28483-4 0 9998
L22 43665 97.5188 353.0774 0014044 160.7415 305.1029 15.16818947 4611

Live tracking and technical data element details for 2018-083D (NORAD 43665). 2018-083D can be tracked NOW for your location showing map with azimuth and elevation plus other details from your city location.

Track the satellite on the map from your city or location and see movement details for azimuth, elevation, latitude, longitude, range, height, and movement on the map or in text.







IsCatalogInMostPopularTable: catalog: 43665, numindb: 107
Update: records affected: 1



GetName: 43665 2018-083D

Hit Count: updated at: Sun, 21 Jul 2019 16:08:40 GMT